DW4338 Weather Reports


time (UTC)temp
C
wind
direction
speed
KPH
gust
KPH
rain 1hr
cm
rain 24hr
cm
rain mn
cm
humidity
%
barometer
mb
20260506201603 3 221 4.8 0.0 0.00 0.00 0.08 76 1013.5
20260506200058 4 221 4.8 0.0 0.00 0.00 0.08 75 1013.5
20260506194558 4 221 4.8 0.0 0.00 0.00 0.08 75 1013.5
20260506193057 4 221 4.8 0.0 0.00 0.00 0.08 76 1013.4
20260506191557 4 222 3.2 0.0 0.00 0.00 0.08 75 1013.4
20260506190058 4 222 4.8 0.0 0.00 0.00 0.08 74 1013.4
20260506184607 5 222 4.8 0.0 0.00 0.00 0.08 73 1013.4
20260506183055 5 222 4.8 0.0 0.00 0.00 0.08 72 1013.4
20260506181555 5 229 8.0 0.0 0.00 0.00 0.08 73 1013.4
20260506180055 6 255 8.0 0.0 0.00 0.00 0.08 73 1013.3
20260506174554 6 223 8.0 0.0 0.00 0.00 0.08 72 1013.3
20260506173107 6 215 8.0 0.0 0.00 0.00 0.08 68 1013.3
20260506171557 6 263 4.8 0.0 0.00 0.00 0.08 68 1013.1
20260506170100 6 228 6.4 0.0 0.00 0.00 0.08 66 1013.2
20260506164611 6 246 6.4 0.0 0.00 0.00 0.08 65 1013.3
20260506163058 7 246 8.0 0.0 0.00 0.00 0.08 62 1013.4
20260506161552 7 239 8.0 0.0 0.00 0.00 0.08 65 1013.3
20260506160105 7 238 8.0 0.0 0.00 0.00 0.08 65 1013.2
20260506154553 7 291 11.3 0.0 0.00 0.00 0.08 66 1013.2
20260506153048 7 276 9.7 0.0 0.00 0.00 0.08 65 1013.1
20260506151547 7 301 12.9 0.0 0.00 0.00 0.08 63 1013.2
20260506150047 6 273 16.1 0.0 0.00 0.00 0.08 63 1013.3
20260506144547 6 278 16.1 0.0 0.00 0.00 0.08 66 1013.4
20260506143045 6 265 14.5 0.0 0.00 0.00 0.08 66 1013.4
20260506141604 6 315 14.5 0.0 0.00 0.00 0.08 66 1013.3
20260506140045 7 288 14.5 0.0 0.00 0.00 0.08 65 1013.3
20260506134544 6 284 14.5 0.0 0.00 0.00 0.08 65 1013.3
20260506133043 6 302 16.1 0.0 0.00 0.00 0.08 66 1013.4
20260506131544 6 288 16.1 0.0 0.00 0.00 0.08 70 1013.3
20260506130042 6 287 16.1 0.0 0.00 0.00 0.08 71 1013.3
20260506124542 6 312 19.3 0.0 0.00 0.00 0.08 73 1013.3
20260506123044 6 290 8.0 0.0 0.00 0.00 0.08 72 1013.1
20260506121543 6 238 6.4 0.0 0.00 0.00 0.08 73 1013.2
20260506120105 6 262 9.7 0.0 0.00 0.00 0.05 73 1013.1
20260506114543 6 234 8.0 0.0 0.00 0.00 0.05 71 1013.1
20260506113037 5 229 8.0 0.0 0.00 0.00 0.05 78 1013.1
20260506111539 3 196 8.0 0.0 0.00 0.00 0.05 81 1013.0
20260506110036 5 247 11.3 0.0 0.00 0.00 0.05 70 1012.9
20260506104535 6 244 9.7 0.0 0.00 0.00 0.05 65 1012.7
20260506103033 6 200 11.3 0.0 0.00 0.00 0.05 69 1012.6
20260506101530 6 264 11.3 0.0 0.00 0.00 0.05 69 1012.6
20260506100033 5 223 9.7 0.0 0.00 0.00 0.05 74 1012.7
20260506094535 5 220 6.4 0.0 0.00 0.00 0.05 76 1012.8
20260506093042 5 200 4.8 0.0 0.00 0.00 0.05 81 1012.8
20260506091528 3 205 8.0 0.0 0.00 0.00 0.05 84 1012.8
20260506090027 2 216 11.3 0.0 0.00 0.00 0.05 81 1012.9
20260506084526 3 211 9.7 0.0 0.00 0.00 0.05 77 1012.8
20260506083025 4 252 9.7 0.0 0.00 0.00 0.05 77 1012.7
20260506081525 6 205 9.7 0.0 0.00 0.00 0.05 72 1012.6
20260506073020 5 221 8.0 0.0 0.00 0.00 0.05 74 1012.4
20260506071519 5 219 9.7 0.0 0.00 0.00 0.05 75 1012.4
20260506061521 5 197 6.4 0.0 0.00 0.00 0.05 75 1012.1
20260506044517 3 252 8.0 0.0 0.00 0.00 0.05 74 1011.9
20260506043014 3 274 12.9 0.0 0.00 0.00 0.05 73 1011.9
20260506041508 3 280 14.5 0.0 0.00 0.00 0.05 72 1012.0
20260506040007 3 274 9.7 0.0 0.00 0.00 0.05 72 1012.0
20260506034508 2 269 6.4 0.0 0.00 0.00 0.05 72 1011.9
20260506033007 3 270 6.4 0.0 0.00 0.00 0.05 71 1011.9
20260506031513 3 271 4.8 0.0 0.00 0.00 0.05 70 1011.8
20260506030007 2 271 6.4 0.0 0.00 0.00 0.05 71 1011.9
20260506024504 2 271 14.5 0.0 0.00 0.00 0.05 74 1012.2
20260506023002 2 286 16.1 0.0 0.00 0.00 0.05 82 1012.3
20260506021502 3 283 19.3 0.0 0.00 0.00 0.05 84 1012.3
20260506020059 2 169 3.2 0.0 0.00 0.00 0.05 87 1012.2
20260506014602 2 103 1.6 0.0 0.00 0.00 0.05 87 1012.3
20260506013100 2 103 3.2 0.0 0.00 0.00 0.05 87 1012.3
20260506011600 2 55 3.2 0.0 0.00 0.00 0.03 86 1012.3
20260506010100 2 10 1.6 0.0 0.00 0.00 0.03 86 1012.4
20260506004627 2 10 0.0 0.0 0.00 0.00 0.03 86 1012.3
20260506003057 2 10 1.6 0.0 0.00 0.00 0.03 85 1012.3
20260506001559 2 346 1.6 0.0 0.00 0.00 0.03 85 1012.4
20260506000054 2 346 1.6 0.0 0.00 0.00 0.03 86 1012.4
20260505234613 2 346 0.0 0.0 0.00 0.00 0.03 86 1012.4
20260505233053 2 346 0.0 0.0 0.00 0.00 0.03 86 1012.4
20260505231553 2 346 4.8 0.0 0.00 0.00 0.03 86 1012.5
20260505230053 2 346 3.2 0.0 0.00 0.00 0.03 85 1012.4
20260505224551 2 336 6.4 0.0 0.00 0.00 0.03 84 1012.4
20260505223059 3 348 8.0 0.0 0.00 0.00 0.03 82 1012.5
20260505221558 3 278 9.7 0.0 0.00 0.00 0.00 77 1012.4
20260505220046 3 300 0.0 0.0 0.00 0.00 0.23 72 1012.4
20260505214552 3 300 0.0 0.0 0.00 0.00 0.23 71 1012.4
20260505213043 3 300 0.0 0.0 0.00 0.00 0.23 70 1012.3
20260505211539 3 300 0.0 0.0 0.00 0.00 0.23 70 1012.2
20260505210039 3 300 0.0 0.0 0.00 0.00 0.23 70 1012.3
20260505204538 3 300 0.0 0.0 0.00 0.00 0.23 71 1012.3
20260505203038 3 300 0.0 0.0 0.00 0.00 0.23 70 1012.3